Time,TemperatureF,DewpointF,PressureIn,WindDirection,WindDirectionDegrees,WindSpeedMPH,WindSpeedGustMPH,Humidity,HourlyPrecipIn,Conditions,Clouds,dailyrainin,SolarRadiationWatts/m^2,SoftwareType,DateUTC
2013-08-13 00:01:00,91.0,43.0,-100.00,SE,137,0.0,13.0,19,0.00,,,0.00,0.000000,,2013-08-13 07:01:00,
2013-08-13 00:42:00,88.0,47.0,-100.00,ESE,105,1.0,11.0,24,0.00,,,0.00,0.000000,,2013-08-13 07:42:00,
2013-08-13 00:52:00,88.0,47.0,-100.00,ESE,105,1.0,11.0,24,0.00,,,0.00,0.000000,,2013-08-13 07:52:00,
2013-08-13 01:01:00,88.0,47.0,-100.00,ESE,105,1.0,11.0,24,0.00,,,0.00,0.000000,,2013-08-13 08:01:00,
2013-08-13 01:42:00,83.0,51.0,-100.00,South,180,0.0,5.0,33,0.00,,,0.00,0.000000,,2013-08-13 08:42:00,
2013-08-13 01:52:00,83.0,51.0,-100.00,South,180,0.0,5.0,33,0.00,,,0.00,0.000000,,2013-08-13 08:52:00,
2013-08-13 02:01:00,83.0,51.0,-100.00,South,180,0.0,5.0,33,0.00,,,0.00,0.000000,,2013-08-13 09:01:00,
2013-08-13 03:43:00,79.0,46.0,-100.00,ENE,68,2.0,6.0,31,0.00,,,0.00,0.000000,,2013-08-13 10:43:00,
2013-08-13 03:52:00,79.0,46.0,-100.00,ENE,68,2.0,6.0,31,0.00,,,0.00,0.000000,,2013-08-13 10:52:00,
2013-08-13 04:02:00,79.0,46.0,-100.00,ENE,68,2.0,6.0,31,0.00,,,0.00,0.000000,,2013-08-13 11:02:00,
2013-08-13 05:52:00,77.0,41.0,-100.00,ESE,122,2.0,6.0,28,0.00,,,0.00,0.000000,,2013-08-13 12:52:00,
2013-08-13 06:01:00,77.0,41.0,-100.00,ESE,122,2.0,6.0,28,0.00,,,0.00,0.000000,,2013-08-13 13:01:00,
2013-08-13 10:46:00,-999.0,-99.9,-100.00,SSE,163,9.0,14.0,-999,0.00,,,0.00,633.000000,,2013-08-13 17:46:00,
2013-08-13 18:42:00,107.0,46.0,-100.00,SSW,206,6.0,12.0,13,0.00,,,0.00,675.000000,,2013-08-14 01:42:00,
2013-08-13 18:52:00,107.0,46.0,-100.00,SSW,206,6.0,12.0,13,0.00,,,0.00,675.000000,,2013-08-14 01:52:00,
2013-08-13 19:02:00,107.0,46.0,-100.00,SSW,206,6.0,12.0,13,0.00,,,0.00,675.000000,,2013-08-14 02:02:00,
2013-08-13 19:42:00,104.0,54.0,-100.00,SW,223,12.0,15.0,19,0.00,,,0.00,387.000000,,2013-08-14 02:42:00,
2013-08-13 19:52:00,104.0,54.0,-100.00,SW,223,12.0,15.0,19,0.00,,,0.00,387.000000,,2013-08-14 02:52:00,
2013-08-13 20:01:00,104.0,54.0,-100.00,SW,223,12.0,15.0,19,0.00,,,0.00,387.000000,,2013-08-14 03:01:00,
2013-08-13 20:43:00,101.0,52.0,-100.00,SW,218,6.0,17.0,20,0.00,,,0.00,51.000000,,2013-08-14 03:43:00,
2013-08-13 20:53:00,101.0,52.0,-100.00,SW,218,6.0,17.0,20,0.00,,,0.00,51.000000,,2013-08-14 03:53:00,
2013-08-13 21:03:00,101.0,52.0,-100.00,SW,218,6.0,17.0,20,0.00,,,0.00,51.000000,,2013-08-14 04:03:00,
2013-08-13 21:42:00,95.0,51.0,-100.00,SSW,201,4.0,14.0,23,0.00,,,0.00,3.000000,,2013-08-14 04:42:00,
2013-08-13 21:52:00,95.0,51.0,-100.00,SSW,201,4.0,14.0,23,0.00,,,0.00,3.000000,,2013-08-14 04:52:00,
2013-08-13 22:02:00,95.0,51.0,-100.00,SSW,201,4.0,14.0,23,0.00,,,0.00,3.000000,,2013-08-14 05:02:00,
2013-08-13 22:42:00,91.0,51.0,-100.00,SSW,200,6.0,11.0,26,0.00,,,0.00,0.000000,,2013-08-14 05:42:00,
2013-08-13 22:52:00,91.0,51.0,-100.00,SSW,200,6.0,11.0,26,0.00,,,0.00,0.000000,,2013-08-14 05:52:00,
2013-08-13 23:01:00,91.0,51.0,-100.00,SSW,200,6.0,11.0,26,0.00,,,0.00,0.000000,,2013-08-14 06:01:00,
2013-08-13 23:42:00,88.0,52.0,-100.00,SE,142,2.0,8.0,29,0.00,,,0.00,0.000000,,2013-08-14 06:42:00,
2013-08-13 23:52:00,88.0,52.0,-100.00,SE,142,2.0,8.0,29,0.00,,,0.00,0.000000,,2013-08-14 06:52:00,